Regional Weather Roundup
Issued by NWS

Current Version | Previous Version | Text Only | Print | Product List | Glossary On
Versions: 1 2 3 4 5 6 7 8 9 10 11 12 13 14 15 16 17 18 19 20 21 22 23 24 25 26 27 28 29 30 31 32 33 34 35 36 37 38 39 40 41 42 43 44 45 46 47 48 49 50
000
ASUS44 KLIX 281410
RWRLA
LOUISIANA WEATHER ROUNDUP
NATIONAL WEATHER SERVICE NEW ORLEANS LA
800 AM CST WED JAN 28 2015

NOTE: "FAIR" INDICATES FEW OR NO CLOUDS BELOW 12,000 FEET WITH NO
      SIGNIFICANT WEATHER AND/OR OBSTRUCTIONS TO VISIBILITY.
      SKY/WX - SKY CONDITION AND SIGNIFICANT WEATHER.
      TMP - AIR TEMPERATURE.    DP   - DEWPOINT TEMPERATURE.
      RH  - RELATIVE HUMIDITY.  PRES - PRESSURE.
      HX  - HEAT INDEX.         WCI  - WIND CHILL INDEX.

*  THESE STATIONS ARE NOT NWS OR FAA STATIONS AND ARE NOT UNDER
   NWS QUALITY CONTROL.

LAZ040-048-061>063-065-066-069-281500-
SOUTHEAST LOUISIANA

CITY           SKY/WX    TMP DP  RH WIND       PRES   REMARKS
N.O. AUDUBON     N/A     53  42  67 MISG        N/A
N.O. INTL ARPT SUNNY     51  36  56 E10       30.27R
N.O. LAKEFRONT SUNNY     52  38  58 E13       30.28R
N.O. DOWNTOWN* FAIR      50  36  57 NE5       30.27R
SLIDELL        SUNNY     46  36  68 VRB6      30.27R
BATON ROUGE    SUNNY     45  38  76 E3        30.26R
BOOTHVILLE     SUNNY     53  47  79 NE8       30.27R
BELLE CHASSE   SUNNY     51  41  68 E9        30.26R
BOGALUSA*        N/A     38  36  90 CALM      30.29S
GALLIANO*      SUNNY     54  44  68 MISG      30.27R
NEW ROADS*     FAIR      47  38  71 E6        30.26R
GONZALES*      FAIR      49  41  75 CALM      30.26R
HAMMOND*       SUNNY     48  36  61 E5        30.29R
HOUMA*         SUNNY     46  43  87 NE7       30.26R
PORT FOURCHON* SUNNY     55  48  76 NE10      30.29R

$$

LAZ041-044-053-054-281500-
SOUTHWEST LOUISIANA

CITY           SKY/WX    TMP DP  RH WIND       PRES   REMARKS
LAKE CHARLES   CLEAR     48  46  93 E6        30.22R FOG
LAFAYETTE      SUNNY     51  38  60 CALM      30.25R
PATTERSON      SUNNY     52  39  62 E5        30.26R
SALT POINT       N/A     51  40  65 VRB6      30.23R
NEW IBERIA     SUNNY     50  41  71 E3        30.25R
CHENAULT AIRPK NOT AVBL

$$

LAZ027-028-281500-
CENTRAL LOUISIANA

CITY           SKY/WX    TMP DP  RH WIND       PRES   REMARKS
FORT POLK      CLEAR     47  41  79 VRB3      30.22R HAZE
ALEXANDRIA INT PTCLDY    41  39  93 E3        30.24R
ALEXANDRIA     CLEAR     40  37  89 CALM      30.25R

$$

LAZ001-002-281500-
NORTHWEST LOUISIANA

CITY           SKY/WX    TMP DP  RH WIND       PRES   REMARKS
SHREVEPORT     CLEAR     48  41  76 SE6       30.19R
BARKSDALE AFB  CLEAR     43  38  84 SE5       30.19S
DTN SHREVEPORT CLEAR     47  36  65 SE7       30.19R

$$

LAZ014-016-281500-
NORTHEAST LOUISIANA

CITY           SKY/WX    TMP DP  RH WIND       PRES   REMARKS
MONROE         CLEAR     45  37  73 CALM      30.26R
TALLULAH       SUNNY     44  36  73 SE7       30.27R

$$




USA.gov is the U.S. government's official web portal to all federal, state and local government web resources and services.